Terminal Aerodrome Forecast
Issued by NWS Grand Forks, ND

Home | Current Version | Previous Version | Graphics & Text | Print | Product List | Glossary On
Versions: 1 2 3 4 5 6 7 8 9 10 11 12 13 14 15 16 17 18 19 20 21 22
000
FTUS43 KFGF 241100
TAFGFK
TAF
KGFK 241120Z 2412/2512 08009KT 5SM -RA BR OVC040
     FM241400 16010KT P6SM OVC015
     FM241800 18013KT P6SM BKN025
     FM242200 20016KT P6SM BKN100
     FM250200 20012KT P6SM SCT250=

USA.gov is the U.S. government's official web portal to all federal, state and local government web resources and services.